FDX621 CYEG-CYCG

Flight info

Callsign FDX621
Flight time 2h 33m
Altitude 6000
Route ANDIE NADPI TYEEE
Aircraft C208/L-SDF/C

Departure

Time 2026-04-22 00:26
Airport Edmonton International Airport (CYEG)

Arrival

Time 2026-04-22 02:59
Airport Castlegar/West Kootenay Regional Airport (CYCG)
Time Latitude Longitude Altitude Speed Heading
2026-04-21 23:37 53.29632 -113.56944 2368 ft 0 kts 44°
2026-04-22 00:17 53.29637 -113.56926 2350 ft 5 kts 97°
2026-04-22 00:17 53.29587 -113.56925 2349 ft 8 kts 195°
2026-04-22 00:17 53.29545 -113.56943 2349 ft 9 kts 194°
2026-04-22 00:17 53.29462 -113.56974 2349 ft 14 kts 220°
2026-04-22 00:18 53.29439 -113.57107 2349 ft 12 kts 314°
2026-04-22 00:18 53.29483 -113.57178 2350 ft 8 kts 315°
2026-04-22 00:18 53.29537 -113.57270 2350 ft 15 kts 315°
2026-04-22 00:18 53.29627 -113.57417 2351 ft 21 kts 315°
2026-04-22 00:19 53.29741 -113.57611 2352 ft 23 kts 315°
2026-04-22 00:19 53.29853 -113.57796 2352 ft 21 kts 315°
2026-04-22 00:19 53.29944 -113.57954 2353 ft 17 kts 314°
2026-04-22 00:19 53.30022 -113.58085 2354 ft 14 kts 316°
2026-04-22 00:20 53.30088 -113.58193 2354 ft 12 kts 315°
2026-04-22 00:20 53.30154 -113.58303 2354 ft 17 kts 314°
2026-04-22 00:20 53.30251 -113.58467 2355 ft 22 kts 315°
2026-04-22 00:20 53.30355 -113.58638 2355 ft 19 kts 316°
2026-04-22 00:21 53.30440 -113.58779 2356 ft 16 kts 314°
2026-04-22 00:21 53.30511 -113.58898 2355 ft 14 kts 317°
2026-04-22 00:21 53.30585 -113.59022 2355 ft 14 kts 315°
2026-04-22 00:21 53.30648 -113.59125 2354 ft 12 kts 315°
2026-04-22 00:22 53.30718 -113.59243 2353 ft 15 kts 316°
2026-04-22 00:22 53.30794 -113.59358 2350 ft 15 kts 316°
2026-04-22 00:22 53.30848 -113.59450 2347 ft 3 kts 316°
2026-04-22 00:22 53.30849 -113.59451 2347 ft 0 kts 316°
2026-04-22 00:23 53.30851 -113.59455 2347 ft 3 kts 316°
2026-04-22 00:23 53.30892 -113.59522 2346 ft 13 kts 314°
2026-04-22 00:24 53.30969 -113.59550 2347 ft 9 kts 38°
2026-04-22 00:24 53.31053 -113.59436 2346 ft 30 kts 36°
2026-04-22 00:24 53.31326 -113.59114 2356 ft 62 kts 39°
2026-04-22 00:24 53.31731 -113.58700 2407 ft 74 kts 34°
2026-04-22 00:25 53.32205 -113.58211 2493 ft 83 kts 36°
2026-04-22 00:25 53.32712 -113.57721 2670 ft 85 kts 27°
2026-04-22 00:25 53.33276 -113.57408 2777 ft 89 kts 18°
2026-04-22 00:25 53.33929 -113.57215 2823 ft 101 kts 26°
2026-04-22 00:26 53.34638 -113.56845 2981 ft 111 kts 17°
2026-04-22 00:26 53.35392 -113.56590 3263 ft 111 kts
2026-04-22 00:26 53.36207 -113.56604 3397 ft 127 kts 345°
2026-04-22 00:26 53.36908 -113.57477 3672 ft 129 kts 306°
2026-04-22 00:27 53.37243 -113.58918 3850 ft 137 kts 278°
2026-04-22 00:27 53.37162 -113.60449 4182 ft 129 kts 246°
2026-04-22 00:27 53.36744 -113.61748 4448 ft 130 kts 235°
2026-04-22 00:27 53.36356 -113.63182 4620 ft 138 kts 234°
2026-04-22 00:28 53.35685 -113.64298 4863 ft 135 kts 213°
2026-04-22 00:28 53.35072 -113.65493 5109 ft 136 kts 233°
2026-04-22 00:28 53.34526 -113.66772 5357 ft 135 kts 228°
2026-04-22 00:28 53.33955 -113.67974 5659 ft 129 kts 226°
2026-04-22 00:29 53.33401 -113.69115 5948 ft 123 kts 227°
2026-04-22 00:29 53.32871 -113.70196 6228 ft 117 kts 226°
2026-04-22 00:29 53.32374 -113.71207 6484 ft 109 kts 227°
2026-04-22 00:29 53.31916 -113.72140 6738 ft 98 kts 227°
2026-04-22 00:30 53.31508 -113.72962 6957 ft 86 kts 223°
2026-04-22 00:30 53.31101 -113.73741 6981 ft 96 kts 223°
2026-04-22 00:30 53.30607 -113.74604 7071 ft 101 kts 220°
2026-04-22 00:30 53.30121 -113.75397 7294 ft 94 kts 217°
2026-04-22 00:31 53.29652 -113.76082 7490 ft 85 kts 214°
2026-04-22 00:31 53.29186 -113.76681 7553 ft 90 kts 213°
2026-04-22 00:31 53.28654 -113.77324 7642 ft 94 kts 211°
2026-04-22 00:31 53.28098 -113.77898 7782 ft 94 kts 207°
2026-04-22 00:32 53.27522 -113.78409 7921 ft 94 kts 204°
2026-04-22 00:32 53.26930 -113.78887 8049 ft 96 kts 214°
2026-04-22 00:32 53.26537 -113.79789 8177 ft 97 kts 229°
2026-04-22 00:32 53.26117 -113.80690 8300 ft 100 kts 229°
2026-04-22 00:33 53.25690 -113.81621 8426 ft 105 kts 229°
2026-04-22 00:33 53.25236 -113.82604 8557 ft 109 kts 229°
2026-04-22 00:33 53.24761 -113.83622 8688 ft 113 kts 230°
2026-04-22 00:33 53.24268 -113.84680 8819 ft 117 kts 229°
2026-04-22 00:34 53.23754 -113.85774 8949 ft 122 kts 230°
2026-04-22 00:34 53.23223 -113.86914 9076 ft 127 kts 230°
2026-04-22 00:34 53.22672 -113.88084 9203 ft 130 kts 230°
2026-04-22 00:34 53.22107 -113.89290 9326 ft 134 kts 230°
2026-04-22 00:35 53.21528 -113.90522 9453 ft 135 kts 231°
2026-04-22 00:35 53.20956 -113.91741 9641 ft 132 kts 230°
2026-04-22 00:35 53.20392 -113.92941 9811 ft 131 kts 231°
2026-04-22 00:35 53.19835 -113.94122 9978 ft 129 kts 231°
2026-04-22 00:36 53.19284 -113.95293 10146 ft 128 kts 231°
2026-04-22 00:36 53.18736 -113.96455 10309 ft 127 kts 232°
2026-04-22 00:36 53.18190 -113.97612 10477 ft 126 kts 232°
2026-04-22 00:36 53.17649 -113.98759 10645 ft 125 kts 232°
2026-04-22 00:37 53.17113 -113.99896 10811 ft 124 kts 232°
2026-04-22 00:37 53.16584 -114.01016 10979 ft 123 kts 232°
2026-04-22 00:37 53.16060 -114.02128 11147 ft 121 kts 232°
2026-04-22 00:37 53.15539 -114.03228 11317 ft 120 kts 232°
2026-04-22 00:38 53.15025 -114.04318 11491 ft 119 kts 233°
2026-04-22 00:38 53.14515 -114.05393 11664 ft 117 kts 233°
2026-04-22 00:38 53.14181 -114.06099 11778 ft 116 kts 233°
2026-04-22 00:38 53.13684 -114.07150 11947 ft 115 kts 233°
2026-04-22 00:39 53.13188 -114.08203 12095 ft 116 kts 233°
2026-04-22 00:39 53.12687 -114.09254 12250 ft 116 kts 234°
2026-04-22 00:39 53.12228 -114.10355 12405 ft 116 kts 238°
2026-04-22 00:39 53.11779 -114.11463 12563 ft 115 kts 238°
2026-04-22 00:40 53.11332 -114.12561 12705 ft 114 kts 237°
2026-04-22 00:40 53.10888 -114.13647 12861 ft 113 kts 237°
2026-04-22 00:40 53.10447 -114.14723 13018 ft 112 kts 237°
2026-04-22 00:40 53.10011 -114.15796 13173 ft 111 kts 237°
2026-04-22 00:41 53.09576 -114.16856 13325 ft 110 kts 237°
2026-04-22 00:41 53.09149 -114.17901 13479 ft 108 kts 237°
2026-04-22 00:41 53.08732 -114.18925 13623 ft 106 kts 237°
2026-04-22 00:41 53.08319 -114.19929 13758 ft 105 kts 237°
2026-04-22 00:42 53.07908 -114.20927 13896 ft 104 kts 237°
2026-04-22 00:42 53.07502 -114.21919 14034 ft 103 kts 237°
2026-04-22 00:42 53.07100 -114.22901 14175 ft 102 kts 237°
2026-04-22 00:42 53.06700 -114.23876 14317 ft 102 kts 237°
2026-04-22 00:43 53.06305 -114.24839 14448 ft 100 kts 237°
2026-04-22 00:43 53.05917 -114.25787 14586 ft 98 kts 237°
2026-04-22 00:43 53.05535 -114.26716 14723 ft 96 kts 237°
2026-04-22 00:43 53.05165 -114.27616 14849 ft 95 kts 237°
2026-04-22 00:44 53.04794 -114.28519 14964 ft 94 kts 237°
2026-04-22 00:44 53.04427 -114.29413 15083 ft 93 kts 237°
2026-04-22 00:44 53.04067 -114.30289 15191 ft 91 kts 238°
2026-04-22 00:44 53.03714 -114.31146 15302 ft 89 kts 238°
2026-04-22 00:45 53.03369 -114.31981 15412 ft 86 kts 238°
2026-04-22 00:45 53.03035 -114.32792 15517 ft 84 kts 238°
2026-04-22 00:45 53.02714 -114.33570 15615 ft 80 kts 238°
2026-04-22 00:45 53.02409 -114.34309 15711 ft 75 kts 238°
2026-04-22 00:46 53.02107 -114.35031 15700 ft 83 kts 237°
2026-04-22 00:46 53.01772 -114.35775 15811 ft 76 kts 232°
2026-04-22 00:46 53.01348 -114.36419 15709 ft 93 kts 227°
2026-04-22 00:46 53.00846 -114.37106 15733 ft 100 kts 223°
2026-04-22 00:47 53.00234 -114.37747 15802 ft 106 kts 214°
2026-04-22 00:47 52.99614 -114.38331 15936 ft 102 kts 218°
2026-04-22 00:47 52.98976 -114.38940 15963 ft 110 kts 216°
2026-04-22 00:47 52.98467 -114.39813 15967 ft 109 kts 260°
2026-04-22 00:48 52.98583 -114.41091 15962 ft 114 kts 271°
2026-04-22 00:48 52.98585 -114.42400 15959 ft 114 kts 259°
2026-04-22 00:48 52.98399 -114.43690 15961 ft 115 kts 244°
2026-04-22 00:48 52.97991 -114.44854 15956 ft 118 kts 240°
2026-04-22 00:49 52.97550 -114.46024 15953 ft 121 kts 238°
2026-04-22 00:49 52.97091 -114.47172 16002 ft 119 kts 238°
2026-04-22 00:49 52.96624 -114.48319 16007 ft 121 kts 237°
2026-04-22 00:49 52.96147 -114.49477 15997 ft 122 kts 237°
2026-04-22 00:50 52.95664 -114.50648 15997 ft 124 kts 237°
2026-04-22 00:50 52.95172 -114.51831 16000 ft 125 kts 237°
2026-04-22 00:50 52.94677 -114.53026 16003 ft 126 kts 237°
2026-04-22 00:50 52.94173 -114.54241 16013 ft 130 kts 237°
2026-04-22 00:51 52.93653 -114.55493 16015 ft 134 kts 237°
2026-04-22 00:51 52.93116 -114.56789 16017 ft 138 kts 236°
2026-04-22 00:51 52.92563 -114.58111 16012 ft 141 kts 237°
2026-04-22 00:51 52.92007 -114.59449 16015 ft 141 kts 236°
2026-04-22 00:52 52.91448 -114.60795 16009 ft 142 kts 236°
2026-04-22 00:52 52.90898 -114.62121 16010 ft 141 kts 237°
2026-04-22 00:52 52.90341 -114.63454 16010 ft 140 kts 236°
2026-04-22 00:52 52.89787 -114.64780 16008 ft 139 kts 236°
2026-04-22 00:53 52.89237 -114.66099 16002 ft 139 kts 236°
2026-04-22 00:53 52.88690 -114.67416 16001 ft 139 kts 237°
2026-04-22 00:53 52.88142 -114.68726 16001 ft 138 kts 236°
2026-04-22 00:53 52.87595 -114.70038 16003 ft 139 kts 236°
2026-04-22 00:54 52.87044 -114.71355 16006 ft 139 kts 236°
2026-04-22 00:54 52.86492 -114.72676 16005 ft 139 kts 236°
2026-04-22 00:54 52.85940 -114.73996 16003 ft 140 kts 236°
2026-04-22 00:54 52.85388 -114.75314 16000 ft 139 kts 236°
2026-04-22 00:55 52.84841 -114.76626 15988 ft 138 kts 236°
2026-04-22 00:55 52.84293 -114.77928 15986 ft 138 kts 236°
2026-04-22 00:55 52.83205 -114.80524 15987 ft 137 kts 236°
2026-04-22 00:56 52.82662 -114.81818 15990 ft 137 kts 236°
2026-04-22 00:56 52.82117 -114.83113 15992 ft 137 kts 236°
2026-04-22 00:56 52.81578 -114.84399 15991 ft 138 kts 236°
2026-04-22 00:56 52.81034 -114.85696 15991 ft 137 kts 236°
2026-04-22 00:57 52.80488 -114.86992 15993 ft 137 kts 236°
2026-04-22 00:57 52.79944 -114.88287 15992 ft 137 kts 236°
2026-04-22 00:57 52.79401 -114.89577 15991 ft 137 kts 236°
2026-04-22 00:57 52.78859 -114.90864 15990 ft 136 kts 236°
2026-04-22 00:58 52.78317 -114.92152 15983 ft 136 kts 236°
2026-04-22 00:58 52.77780 -114.93431 15982 ft 135 kts 236°
2026-04-22 00:58 52.77249 -114.94692 15983 ft 133 kts 236°
2026-04-22 00:58 52.76720 -114.95943 15984 ft 132 kts 236°
2026-04-22 00:59 52.76192 -114.97186 15984 ft 132 kts 236°
2026-04-22 00:59 52.75670 -114.98429 15984 ft 131 kts 236°
2026-04-22 00:59 52.75148 -114.99665 15981 ft 131 kts 236°
2026-04-22 00:59 52.74627 -115.00894 15983 ft 131 kts 236°
2026-04-22 01:00 52.74106 -115.02121 15989 ft 130 kts 235°
2026-04-22 01:00 52.73583 -115.03351 15987 ft 131 kts 236°
2026-04-22 01:00 52.73062 -115.04588 15988 ft 131 kts 236°
2026-04-22 01:00 52.72540 -115.05822 15990 ft 131 kts 236°
2026-04-22 01:01 52.72016 -115.07056 15990 ft 131 kts 236°
2026-04-22 01:01 52.71491 -115.08290 15989 ft 131 kts 236°
2026-04-22 01:01 52.70972 -115.09522 15987 ft 131 kts 236°
2026-04-22 01:01 52.70452 -115.10751 15988 ft 131 kts 236°
2026-04-22 01:02 52.69931 -115.11975 15988 ft 130 kts 236°
2026-04-22 01:02 52.69410 -115.13202 15986 ft 131 kts 236°
2026-04-22 01:02 52.68887 -115.14433 15989 ft 131 kts 236°
2026-04-22 01:02 52.68362 -115.15666 15991 ft 132 kts 236°
2026-04-22 01:03 52.67836 -115.16904 15991 ft 132 kts 236°
2026-04-22 01:03 52.67311 -115.18138 15990 ft 131 kts 236°
2026-04-22 01:03 52.66787 -115.19373 15992 ft 132 kts 236°
2026-04-22 01:03 52.66258 -115.20613 15992 ft 132 kts 236°
2026-04-22 01:04 52.65729 -115.21849 15988 ft 132 kts 236°
2026-04-22 01:04 52.65204 -115.23085 15989 ft 132 kts 236°
2026-04-22 01:04 52.64674 -115.24319 15997 ft 132 kts 236°
2026-04-22 01:04 52.64146 -115.25556 15998 ft 132 kts 236°
2026-04-22 01:05 52.63617 -115.26797 15997 ft 132 kts 236°
2026-04-22 01:05 52.63089 -115.28034 15995 ft 132 kts 236°
2026-04-22 01:05 52.62562 -115.29268 15995 ft 132 kts 236°
2026-04-22 01:05 52.62035 -115.30501 15987 ft 132 kts 236°
2026-04-22 01:06 52.61507 -115.31735 15987 ft 132 kts 236°
2026-04-22 01:06 52.60978 -115.32970 15986 ft 132 kts 236°
2026-04-22 01:06 52.60447 -115.34209 15986 ft 133 kts 236°
2026-04-22 01:06 52.59917 -115.35448 15985 ft 133 kts 236°
2026-04-22 01:07 52.59385 -115.36686 15988 ft 133 kts 236°
2026-04-22 01:07 52.58855 -115.37923 15988 ft 132 kts 236°
2026-04-22 01:07 52.58326 -115.39156 15993 ft 132 kts 236°
2026-04-22 01:07 52.57798 -115.40389 15992 ft 132 kts 236°
2026-04-22 01:08 52.57268 -115.41619 15992 ft 132 kts 236°
2026-04-22 01:08 52.56745 -115.42837 15992 ft 132 kts 236°
2026-04-22 01:08 52.56214 -115.44071 15991 ft 132 kts 236°
2026-04-22 01:08 52.55684 -115.45304 15993 ft 132 kts 236°
2026-04-22 01:09 52.55152 -115.46541 15993 ft 132 kts 235°
2026-04-22 01:09 52.54618 -115.47773 15992 ft 132 kts 235°
2026-04-22 01:09 52.54088 -115.49010 15989 ft 132 kts 236°
2026-04-22 01:09 52.53558 -115.50242 15990 ft 132 kts 235°
2026-04-22 01:10 52.53029 -115.51470 15992 ft 131 kts 235°
2026-04-22 01:10 52.52499 -115.52696 15991 ft 132 kts 235°
2026-04-22 01:10 52.51970 -115.53923 15990 ft 132 kts 235°
2026-04-22 01:10 52.51438 -115.55154 15989 ft 132 kts 235°
2026-04-22 01:11 52.50909 -115.56378 15993 ft 131 kts 236°
2026-04-22 01:11 52.50378 -115.57604 15991 ft 132 kts 236°
2026-04-22 01:11 52.49850 -115.58828 15993 ft 131 kts 235°
2026-04-22 01:11 52.49320 -115.60050 15992 ft 131 kts 236°
2026-04-22 01:12 52.48792 -115.61275 15993 ft 131 kts 235°
2026-04-22 01:12 52.48260 -115.62500 15993 ft 132 kts 235°
2026-04-22 01:12 52.47730 -115.63730 15994 ft 132 kts 235°
2026-04-22 01:12 52.47195 -115.64957 15995 ft 132 kts 235°
2026-04-22 01:13 52.46662 -115.66184 15995 ft 132 kts 235°
2026-04-22 01:13 52.46129 -115.67416 15995 ft 132 kts 235°
2026-04-22 01:13 52.45595 -115.68646 15998 ft 133 kts 235°
2026-04-22 01:13 52.45059 -115.69879 16011 ft 133 kts 236°
2026-04-22 01:14 52.44528 -115.71120 16007 ft 132 kts 234°
2026-04-22 01:14 52.43990 -115.72339 16006 ft 132 kts 235°
2026-04-22 01:14 52.43458 -115.73560 16006 ft 132 kts 235°
2026-04-22 01:14 52.42928 -115.74782 16006 ft 131 kts 235°
2026-04-22 01:15 52.42397 -115.76000 16008 ft 131 kts 236°
2026-04-22 01:15 52.41867 -115.77218 16009 ft 132 kts 235°
2026-04-22 01:15 52.41334 -115.78437 16006 ft 131 kts 235°
2026-04-22 01:15 52.40805 -115.79656 16004 ft 132 kts 236°
2026-04-22 01:16 52.40273 -115.80874 16005 ft 132 kts 235°
2026-04-22 01:16 52.39741 -115.82096 16006 ft 132 kts 235°
2026-04-22 01:16 52.39209 -115.83316 15976 ft 131 kts 235°
2026-04-22 01:16 52.38682 -115.84515 15991 ft 128 kts 235°
2026-04-22 01:17 52.38165 -115.85692 16000 ft 126 kts 234°
2026-04-22 01:17 52.37644 -115.86880 16002 ft 130 kts 236°
2026-04-22 01:17 52.37118 -115.88093 16009 ft 132 kts 236°
2026-04-22 01:17 52.36584 -115.89316 16010 ft 132 kts 236°
2026-04-22 01:18 52.36053 -115.90531 16009 ft 131 kts 235°
2026-04-22 01:18 52.35521 -115.91738 16008 ft 131 kts 235°
2026-04-22 01:18 52.34993 -115.92948 16008 ft 130 kts 235°
2026-04-22 01:18 52.34469 -115.94143 16011 ft 131 kts 235°
2026-04-22 01:19 52.33936 -115.95354 16014 ft 131 kts 235°
2026-04-22 01:19 52.33403 -115.96565 16008 ft 130 kts 235°
2026-04-22 01:19 52.32872 -115.97773 16010 ft 132 kts 235°
2026-04-22 01:19 52.32340 -115.98993 16011 ft 131 kts 236°
2026-04-22 01:20 52.31808 -116.00195 16007 ft 130 kts 236°
2026-04-22 01:20 52.31290 -116.01382 16010 ft 128 kts 235°
2026-04-22 01:20 52.30765 -116.02576 16009 ft 130 kts 235°
2026-04-22 01:20 52.30232 -116.03783 16006 ft 131 kts 235°
2026-04-22 01:21 52.29706 -116.04979 16001 ft 128 kts 236°
2026-04-22 01:21 52.29199 -116.06138 16004 ft 124 kts 235°
2026-04-22 01:21 52.28689 -116.07283 16002 ft 125 kts 235°
2026-04-22 01:21 52.28176 -116.08444 15997 ft 126 kts 235°
2026-04-22 01:22 52.27667 -116.09600 16005 ft 126 kts 235°
2026-04-22 01:22 52.27168 -116.10736 16009 ft 122 kts 237°
2026-04-22 01:22 52.26667 -116.11872 16004 ft 124 kts 235°
2026-04-22 01:22 52.26160 -116.13014 16005 ft 124 kts 235°
2026-04-22 01:23 52.25655 -116.14159 16000 ft 124 kts 236°
2026-04-22 01:23 52.25149 -116.15306 15999 ft 125 kts 236°
2026-04-22 01:23 52.24638 -116.16454 16009 ft 125 kts 236°
2026-04-22 01:23 52.24135 -116.17597 16006 ft 123 kts 236°
2026-04-22 01:24 52.23641 -116.18716 16013 ft 122 kts 236°
2026-04-22 01:24 52.23138 -116.19848 16012 ft 123 kts 236°
2026-04-22 01:24 52.22635 -116.20983 16012 ft 124 kts 236°
2026-04-22 01:24 52.22144 -116.22076 16040 ft 110 kts 236°
2026-04-22 01:25 52.21684 -116.23129 16016 ft 118 kts 237°
2026-04-22 01:25 52.21216 -116.24230 16013 ft 115 kts 237°
2026-04-22 01:25 52.20730 -116.25288 16023 ft 119 kts 234°
2026-04-22 01:25 52.20227 -116.26397 16027 ft 123 kts 236°
2026-04-22 01:26 52.19898 -116.27138 16024 ft 121 kts 236°
2026-04-22 01:26 52.19411 -116.28248 16017 ft 120 kts 237°
2026-04-22 01:26 52.18931 -116.29344 16025 ft 119 kts 236°
2026-04-22 01:26 52.18427 -116.30458 16027 ft 124 kts 235°
2026-04-22 01:27 52.17917 -116.31601 16043 ft 125 kts 236°
2026-04-22 01:27 52.17404 -116.32754 16045 ft 126 kts 236°
2026-04-22 01:27 52.16892 -116.33910 16041 ft 126 kts 235°
2026-04-22 01:27 52.16377 -116.35069 16039 ft 126 kts 236°
2026-04-22 01:28 52.15862 -116.36227 16029 ft 127 kts 235°
2026-04-22 01:28 52.15338 -116.37404 16033 ft 130 kts 236°
2026-04-22 01:28 52.14802 -116.38594 16035 ft 131 kts 236°
2026-04-22 01:28 52.14264 -116.39800 16030 ft 131 kts 235°
2026-04-22 01:29 52.13724 -116.41000 16032 ft 132 kts 236°
2026-04-22 01:29 52.13191 -116.42203 16028 ft 130 kts 236°
2026-04-22 01:29 52.12660 -116.43394 16028 ft 130 kts 236°
2026-04-22 01:29 52.12126 -116.44579 16038 ft 132 kts 235°
2026-04-22 01:30 52.11570 -116.45846 16024 ft 139 kts 236°
2026-04-22 01:30 52.10999 -116.47070 16047 ft 135 kts 238°
2026-04-22 01:30 52.10476 -116.48281 16043 ft 128 kts 237°
2026-04-22 01:30 52.09957 -116.49448 16047 ft 127 kts 237°
2026-04-22 01:31 52.09432 -116.50630 16045 ft 130 kts 235°
2026-04-22 01:31 52.08897 -116.51799 16039 ft 130 kts 236°
2026-04-22 01:31 52.08367 -116.52980 16044 ft 130 kts 237°
2026-04-22 01:31 52.07825 -116.54194 16047 ft 132 kts 236°
2026-04-22 01:32 52.07276 -116.55401 16045 ft 133 kts 236°
2026-04-22 01:32 52.06719 -116.56666 16045 ft 139 kts 234°
2026-04-22 01:32 52.06142 -116.57931 16044 ft 138 kts 236°
2026-04-22 01:32 52.05582 -116.59169 16044 ft 137 kts 236°
2026-04-22 01:33 52.05025 -116.60398 16053 ft 133 kts 236°
2026-04-22 01:33 52.04483 -116.61596 16066 ft 131 kts 235°
2026-04-22 01:33 52.03951 -116.62784 16058 ft 130 kts 237°
2026-04-22 01:33 52.03420 -116.63985 16046 ft 132 kts 237°
2026-04-22 01:34 52.02887 -116.65176 16052 ft 130 kts 235°
2026-04-22 01:34 52.02354 -116.66348 16051 ft 129 kts 236°
2026-04-22 01:34 52.01853 -116.67472 16053 ft 117 kts 237°
2026-04-22 01:34 52.01370 -116.68549 16051 ft 119 kts 236°
2026-04-22 01:35 52.00868 -116.69596 16055 ft 118 kts 235°
2026-04-22 01:35 52.00381 -116.70667 16052 ft 118 kts 235°
2026-04-22 01:35 51.99906 -116.71753 16050 ft 118 kts 236°
2026-04-22 01:35 51.99427 -116.72834 16052 ft 120 kts 236°
2026-04-22 01:36 51.98927 -116.73932 16058 ft 122 kts 236°
2026-04-22 01:36 51.98422 -116.75045 16064 ft 123 kts 236°
2026-04-22 01:36 51.97911 -116.76173 16080 ft 125 kts 236°
2026-04-22 01:36 51.97395 -116.77313 16083 ft 126 kts 236°
2026-04-22 01:37 51.96874 -116.78462 16079 ft 126 kts 235°
2026-04-22 01:37 51.96355 -116.79605 16078 ft 125 kts 235°
2026-04-22 01:37 51.95841 -116.80738 16077 ft 125 kts 236°
2026-04-22 01:37 51.95324 -116.81879 16078 ft 125 kts 236°
2026-04-22 01:38 51.94807 -116.83018 16084 ft 127 kts 235°
2026-04-22 01:38 51.94273 -116.84182 16082 ft 129 kts 235°
2026-04-22 01:38 51.93749 -116.85345 16080 ft 127 kts 234°
2026-04-22 01:38 51.93222 -116.86500 16077 ft 128 kts 236°
2026-04-22 01:39 51.92695 -116.87668 16064 ft 129 kts 236°
2026-04-22 01:39 51.92163 -116.88840 16066 ft 129 kts 235°
2026-04-22 01:39 51.91628 -116.90008 16066 ft 129 kts 236°
2026-04-22 01:39 51.91097 -116.91175 16070 ft 128 kts 236°
2026-04-22 01:40 51.90568 -116.92336 16066 ft 128 kts 235°
2026-04-22 01:40 51.90040 -116.93497 16065 ft 128 kts 236°
2026-04-22 01:40 51.89512 -116.94674 16068 ft 130 kts 235°
2026-04-22 01:40 51.88969 -116.95837 16059 ft 128 kts 238°
2026-04-22 01:41 51.88437 -116.96981 16067 ft 128 kts 236°
2026-04-22 01:41 51.87919 -116.98153 16062 ft 128 kts 236°
2026-04-22 01:41 51.87387 -116.99312 16061 ft 128 kts 235°
2026-04-22 01:41 51.86858 -117.00469 16057 ft 127 kts 236°
2026-04-22 01:42 51.86335 -117.01610 16062 ft 125 kts 236°
2026-04-22 01:42 51.85819 -117.02737 16062 ft 123 kts 236°
2026-04-22 01:42 51.85305 -117.03856 16071 ft 126 kts 235°
2026-04-22 01:42 51.84768 -117.05026 16076 ft 132 kts 236°
2026-04-22 01:43 51.84216 -117.06242 16068 ft 136 kts 235°
2026-04-22 01:43 51.83652 -117.07463 16056 ft 134 kts 237°
2026-04-22 01:43 51.83102 -117.08644 16063 ft 131 kts 236°
2026-04-22 01:43 51.82561 -117.09839 16070 ft 132 kts 235°
2026-04-22 01:44 51.82010 -117.11043 16064 ft 134 kts 236°
2026-04-22 01:44 51.81458 -117.12251 16044 ft 133 kts 234°
2026-04-22 01:44 51.80898 -117.13455 16048 ft 136 kts 235°
2026-04-22 01:44 51.80350 -117.14657 16066 ft 132 kts 236°
2026-04-22 01:45 51.79799 -117.15862 16065 ft 135 kts 235°
2026-04-22 01:45 51.79238 -117.17081 16065 ft 136 kts 234°
2026-04-22 01:45 51.78679 -117.18297 16067 ft 134 kts 235°
2026-04-22 01:45 51.78136 -117.19500 16059 ft 129 kts 236°
2026-04-22 01:46 51.77599 -117.20644 16047 ft 125 kts 236°
2026-04-22 01:46 51.77077 -117.21769 16045 ft 124 kts 234°
2026-04-22 01:46 51.76551 -117.22880 16055 ft 127 kts 234°
2026-04-22 01:46 51.76029 -117.24037 16059 ft 132 kts 236°
2026-04-22 01:47 51.75487 -117.25249 16052 ft 133 kts 235°
2026-04-22 01:47 51.74941 -117.26423 16060 ft 130 kts 234°
2026-04-22 01:47 51.74388 -117.27599 16058 ft 134 kts 235°
2026-04-22 01:47 51.73826 -117.28819 16065 ft 137 kts 234°
2026-04-22 01:48 51.73247 -117.30050 16043 ft 137 kts 234°
2026-04-22 01:48 51.72707 -117.31242 16057 ft 130 kts 236°
2026-04-22 01:48 51.72158 -117.32427 16065 ft 133 kts 234°
2026-04-22 01:48 51.71572 -117.33599 16049 ft 138 kts 223°
2026-04-22 01:49 51.70594 -117.33999 16051 ft 156 kts 186°
2026-04-22 01:49 51.69519 -117.33893 16039 ft 153 kts 187°
2026-04-22 01:49 51.68497 -117.33839 16030 ft 137 kts 188°
2026-04-22 01:49 51.67551 -117.33838 16038 ft 138 kts 188°
2026-04-22 01:50 51.66572 -117.33814 16039 ft 143 kts 188°
2026-04-22 01:50 51.65579 -117.33786 16035 ft 139 kts 188°
2026-04-22 01:50 51.64614 -117.33752 16037 ft 141 kts 188°
2026-04-22 01:50 51.63617 -117.33707 16042 ft 145 kts 188°
2026-04-22 01:51 51.62595 -117.33673 16045 ft 148 kts 188°
2026-04-22 01:51 51.61566 -117.33635 16044 ft 148 kts 188°
2026-04-22 01:51 51.60532 -117.33599 16040 ft 148 kts 188°
2026-04-22 01:51 51.59502 -117.33564 16033 ft 148 kts 188°
2026-04-22 01:52 51.58470 -117.33529 16034 ft 149 kts 188°
2026-04-22 01:52 51.57437 -117.33491 16033 ft 148 kts 188°
2026-04-22 01:52 51.56417 -117.33459 16031 ft 145 kts 188°
2026-04-22 01:52 51.55422 -117.33429 16010 ft 139 kts 190°
2026-04-22 01:53 51.54496 -117.33393 16012 ft 129 kts 187°
2026-04-22 01:53 51.53586 -117.33346 16015 ft 133 kts 189°
2026-04-22 01:53 51.52656 -117.33320 16019 ft 137 kts 188°
2026-04-22 01:53 51.51699 -117.33289 16027 ft 139 kts 188°
2026-04-22 01:54 51.50730 -117.33255 16021 ft 138 kts 188°
2026-04-22 01:54 51.49792 -117.33208 16009 ft 134 kts 188°
2026-04-22 01:54 51.48850 -117.33196 16005 ft 136 kts 188°
2026-04-22 01:54 51.47896 -117.33166 16006 ft 138 kts 188°
2026-04-22 01:55 51.46929 -117.33131 16006 ft 139 kts 187°
2026-04-22 01:55 51.45960 -117.33091 16016 ft 140 kts 188°
2026-04-22 01:55 51.44973 -117.33060 16024 ft 144 kts 188°
2026-04-22 01:55 51.43960 -117.33026 16020 ft 148 kts 187°
2026-04-22 01:56 51.42928 -117.32991 16023 ft 149 kts 187°
2026-04-22 01:56 51.41886 -117.32953 16023 ft 151 kts 187°
2026-04-22 01:56 51.40838 -117.32914 16022 ft 150 kts 187°
2026-04-22 01:56 51.39800 -117.32878 16023 ft 149 kts 187°
2026-04-22 01:57 51.38757 -117.32845 16011 ft 151 kts 187°
2026-04-22 01:57 51.37719 -117.32790 16023 ft 147 kts 186°
2026-04-22 01:57 51.36694 -117.32757 16005 ft 146 kts 189°
2026-04-22 01:57 51.35682 -117.32748 16011 ft 146 kts 188°
2026-04-22 01:58 51.34663 -117.32711 16005 ft 146 kts 187°
2026-04-22 01:58 51.33667 -117.32659 16005 ft 142 kts 187°
2026-04-22 01:58 51.32669 -117.32634 16002 ft 145 kts 188°
2026-04-22 01:58 51.31655 -117.32605 16002 ft 146 kts 187°
2026-04-22 01:59 51.30639 -117.32566 16005 ft 145 kts 187°
2026-04-22 01:59 51.29646 -117.32514 15986 ft 140 kts 187°
2026-04-22 01:59 51.28715 -117.32477 15987 ft 129 kts 191°
2026-04-22 01:59 51.27832 -117.32472 15989 ft 129 kts 189°
2026-04-22 02:00 51.26928 -117.32444 15997 ft 131 kts 189°
2026-04-22 02:00 51.26006 -117.32413 15996 ft 133 kts 188°
2026-04-22 02:00 51.25073 -117.32367 16004 ft 135 kts 189°
2026-04-22 02:00 51.24120 -117.32342 16009 ft 140 kts 188°
2026-04-22 02:01 51.23134 -117.32313 16006 ft 144 kts 186°
2026-04-22 02:01 51.22127 -117.32279 16007 ft 146 kts 186°
2026-04-22 02:01 51.21103 -117.32242 16009 ft 148 kts 186°
2026-04-22 02:01 51.20067 -117.32203 16007 ft 149 kts 186°
2026-04-22 02:02 51.19033 -117.32167 16007 ft 148 kts 186°
2026-04-22 02:02 51.18009 -117.32130 16004 ft 147 kts 186°
2026-04-22 02:02 51.16988 -117.32095 16003 ft 147 kts 186°
2026-04-22 02:02 51.15969 -117.32062 15998 ft 146 kts 186°
2026-04-22 02:03 51.14958 -117.32025 15996 ft 146 kts 187°
2026-04-22 02:03 51.13946 -117.31992 16000 ft 145 kts 187°
2026-04-22 02:03 51.12935 -117.31963 15990 ft 143 kts 186°
2026-04-22 02:03 51.11996 -117.31914 15990 ft 127 kts 188°
2026-04-22 02:04 51.10243 -117.31864 16002 ft 132 kts 187°
2026-04-22 02:04 51.09298 -117.31864 16005 ft 138 kts 187°
2026-04-22 02:04 51.08321 -117.31795 16003 ft 141 kts 186°
2026-04-22 02:05 51.07344 -117.31759 16002 ft 140 kts 188°
2026-04-22 02:05 51.06383 -117.31735 15994 ft 141 kts 186°
2026-04-22 02:05 51.05387 -117.31704 15990 ft 141 kts 186°
2026-04-22 02:05 51.04423 -117.31669 15992 ft 141 kts 188°
2026-04-22 02:06 51.03453 -117.31644 15991 ft 138 kts 187°
2026-04-22 02:06 51.02466 -117.31612 15995 ft 145 kts 185°
2026-04-22 02:06 51.01449 -117.31562 15994 ft 147 kts 186°
2026-04-22 02:06 51.00434 -117.31530 15992 ft 145 kts 186°
2026-04-22 02:07 50.99428 -117.31496 15992 ft 144 kts 186°
2026-04-22 02:07 50.98422 -117.31456 15985 ft 143 kts 188°
2026-04-22 02:07 50.97444 -117.31446 15977 ft 141 kts 184°
2026-04-22 02:07 50.96465 -117.31395 15976 ft 141 kts 184°
2026-04-22 02:08 50.95486 -117.31361 15977 ft 141 kts 185°
2026-04-22 02:08 50.94511 -117.31329 15978 ft 140 kts 185°
2026-04-22 02:08 50.93536 -117.31298 15980 ft 141 kts 184°
2026-04-22 02:08 50.92548 -117.31269 15983 ft 143 kts 184°
2026-04-22 02:09 50.91548 -117.31235 15980 ft 144 kts 184°
2026-04-22 02:09 50.90550 -117.31195 15970 ft 142 kts 184°
2026-04-22 02:09 50.89571 -117.31149 15986 ft 141 kts 185°
2026-04-22 02:09 50.88581 -117.31133 15981 ft 143 kts 185°
2026-04-22 02:10 50.87596 -117.31100 15976 ft 140 kts 185°
2026-04-22 02:10 50.86620 -117.31065 15976 ft 140 kts 185°
2026-04-22 02:10 50.85656 -117.31034 15961 ft 136 kts 184°
2026-04-22 02:10 50.84735 -117.31013 15958 ft 129 kts 183°
2026-04-22 02:11 50.83860 -117.30996 15969 ft 124 kts 186°
2026-04-22 02:11 50.82978 -117.30962 15963 ft 130 kts 182°
2026-04-22 02:11 50.82060 -117.30891 15969 ft 134 kts 184°
2026-04-22 02:11 50.81116 -117.30867 15979 ft 137 kts 184°
2026-04-22 02:12 50.80152 -117.30844 15982 ft 140 kts 184°
2026-04-22 02:12 50.79176 -117.30813 15978 ft 141 kts 184°
2026-04-22 02:12 50.78205 -117.30778 15978 ft 138 kts 184°
2026-04-22 02:12 50.77254 -117.30744 15974 ft 138 kts 183°
2026-04-22 02:13 50.76296 -117.30422 15962 ft 148 kts 149°
2026-04-22 02:13 50.75575 -117.29276 15964 ft 150 kts 137°
2026-04-22 02:13 50.74871 -117.28019 15843 ft 156 kts 141°
2026-04-22 02:13 50.74133 -117.26721 15738 ft 162 kts 140°
2026-04-22 02:14 50.73362 -117.25374 15612 ft 168 kts 140°
2026-04-22 02:14 50.72570 -117.24009 15508 ft 170 kts 140°
2026-04-22 02:14 50.71765 -117.22622 15390 ft 172 kts 140°
2026-04-22 02:14 50.70951 -117.21232 15273 ft 173 kts 139°
2026-04-22 02:15 50.70122 -117.19837 15160 ft 175 kts 140°
2026-04-22 02:15 50.69280 -117.18436 15040 ft 177 kts 140°
2026-04-22 02:15 50.68425 -117.17025 14923 ft 179 kts 140°
2026-04-22 02:15 50.67557 -117.15601 14807 ft 181 kts 140°
2026-04-22 02:16 50.66689 -117.14172 14677 ft 179 kts 140°
2026-04-22 02:16 50.65839 -117.12766 14540 ft 177 kts 139°
2026-04-22 02:16 50.65003 -117.11377 14420 ft 173 kts 140°
2026-04-22 02:16 50.64165 -117.10021 14298 ft 173 kts 140°
2026-04-22 02:17 50.63334 -117.08668 14180 ft 172 kts 140°
2026-04-22 02:17 50.62782 -117.07749 13996 ft 175 kts 139°
2026-04-22 02:17 50.61935 -117.06393 13885 ft 172 kts 140°
2026-04-22 02:17 50.61046 -117.05162 13768 ft 169 kts 150°
2026-04-22 02:18 50.60088 -117.04090 13658 ft 169 kts 150°
2026-04-22 02:18 50.59131 -117.03021 13542 ft 169 kts 149°
2026-04-22 02:18 50.58170 -117.01951 13417 ft 169 kts 149°
2026-04-22 02:18 50.57172 -117.00986 13284 ft 168 kts 157°
2026-04-22 02:19 50.56130 -117.00163 13153 ft 168 kts 158°
2026-04-22 02:19 50.55082 -116.99349 13022 ft 168 kts 158°
2026-04-22 02:19 50.54034 -116.98531 12891 ft 168 kts 157°
2026-04-22 02:19 50.52981 -116.97740 12758 ft 167 kts 158°
2026-04-22 02:20 50.51941 -116.96970 12620 ft 164 kts 158°
2026-04-22 02:20 50.50919 -116.96214 12487 ft 161 kts 158°
2026-04-22 02:20 50.49906 -116.95468 12321 ft 162 kts 158°
2026-04-22 02:20 50.48874 -116.94716 12074 ft 165 kts 158°
2026-04-22 02:21 50.47830 -116.93964 11822 ft 164 kts 158°
2026-04-22 02:21 50.46787 -116.93244 11567 ft 163 kts 162°
2026-04-22 02:21 50.45696 -116.92799 11316 ft 162 kts 168°
2026-04-22 02:21 50.44611 -116.92425 11072 ft 162 kts 168°
2026-04-22 02:22 50.43496 -116.92053 10822 ft 162 kts 169°
2026-04-22 02:22 50.42407 -116.91702 10579 ft 162 kts 169°
2026-04-22 02:22 50.41309 -116.91360 10340 ft 162 kts 168°
2026-04-22 02:22 50.40177 -116.91000 10109 ft 169 kts 169°
2026-04-22 02:23 50.38995 -116.91019 9879 ft 173 kts 188°
2026-04-22 02:23 50.37802 -116.91388 9653 ft 176 kts 191°
2026-04-22 02:23 50.36599 -116.91787 9407 ft 177 kts 191°
2026-04-22 02:23 50.35386 -116.92187 9154 ft 178 kts 191°
2026-04-22 02:24 50.34170 -116.92589 8901 ft 179 kts 191°
2026-04-22 02:24 50.32953 -116.92993 8648 ft 179 kts 191°
2026-04-22 02:24 50.31747 -116.93396 8385 ft 170 kts 191°
2026-04-22 02:24 50.30667 -116.93770 8085 ft 150 kts 192°
2026-04-22 02:25 50.29690 -116.94104 7795 ft 140 kts 191°
2026-04-22 02:25 50.28735 -116.94417 7536 ft 147 kts 190°
2026-04-22 02:25 50.27681 -116.94757 7318 ft 161 kts 191°
2026-04-22 02:25 50.26550 -116.95120 7104 ft 170 kts 191°
2026-04-22 02:26 50.25366 -116.95496 6885 ft 176 kts 191°
2026-04-22 02:26 50.24147 -116.95835 6660 ft 180 kts 184°
2026-04-22 02:26 50.22891 -116.95806 6434 ft 182 kts 172°
2026-04-22 02:26 50.21645 -116.95504 6203 ft 181 kts 170°
2026-04-22 02:27 50.20407 -116.95184 5962 ft 181 kts 169°
2026-04-22 02:27 50.19166 -116.94861 5710 ft 181 kts 170°
2026-04-22 02:27 50.17922 -116.94537 5465 ft 181 kts 169°
2026-04-22 02:27 50.16681 -116.94200 5220 ft 181 kts 169°
2026-04-22 02:28 50.15447 -116.93833 4977 ft 180 kts 163°
2026-04-22 02:28 50.14351 -116.92921 4733 ft 178 kts 146°
2026-04-22 02:28 50.13325 -116.91864 4575 ft 173 kts 145°
2026-04-22 02:28 50.12330 -116.90924 4564 ft 163 kts 153°
2026-04-22 02:29 50.11301 -116.90245 4554 ft 159 kts 160°
2026-04-22 02:29 50.10245 -116.89829 4559 ft 155 kts 168°
2026-04-22 02:29 50.09196 -116.89494 4565 ft 153 kts 167°
2026-04-22 02:29 50.08160 -116.89160 4557 ft 151 kts 167°
2026-04-22 02:30 50.07133 -116.88831 4566 ft 150 kts 167°
2026-04-22 02:30 50.06109 -116.88513 4569 ft 150 kts 167°
2026-04-22 02:30 50.05084 -116.88239 4559 ft 150 kts 172°
2026-04-22 02:30 50.04041 -116.88193 4556 ft 150 kts 179°
2026-04-22 02:31 50.02999 -116.88285 4555 ft 150 kts 184°
2026-04-22 02:31 50.01961 -116.88420 4555 ft 150 kts 184°
2026-04-22 02:31 50.00924 -116.88556 4554 ft 149 kts 184°
2026-04-22 02:31 49.99904 -116.88693 4553 ft 149 kts 184°
2026-04-22 02:32 49.98870 -116.88834 4552 ft 149 kts 184°
2026-04-22 02:32 49.97835 -116.88973 4553 ft 150 kts 184°
2026-04-22 02:32 49.96798 -116.89109 4552 ft 149 kts 184°
2026-04-22 02:32 49.95764 -116.89238 4555 ft 149 kts 184°
2026-04-22 02:33 49.94725 -116.89358 4556 ft 150 kts 183°
2026-04-22 02:33 49.93682 -116.89485 4557 ft 150 kts 184°
2026-04-22 02:33 49.92637 -116.89612 4555 ft 151 kts 183°
2026-04-22 02:33 49.91589 -116.89734 4557 ft 151 kts 183°
2026-04-22 02:34 49.90541 -116.89654 4559 ft 151 kts 173°
2026-04-22 02:34 49.89496 -116.89499 4559 ft 151 kts 174°
2026-04-22 02:34 49.88452 -116.89351 4558 ft 151 kts 173°
2026-04-22 02:34 49.87408 -116.89202 4562 ft 150 kts 173°
2026-04-22 02:35 49.86363 -116.89051 4555 ft 151 kts 174°
2026-04-22 02:35 49.85317 -116.88892 4548 ft 151 kts 173°
2026-04-22 02:35 49.84269 -116.88729 4546 ft 151 kts 174°
2026-04-22 02:35 49.83223 -116.88563 4546 ft 151 kts 173°
2026-04-22 02:36 49.82175 -116.88398 4547 ft 152 kts 173°
2026-04-22 02:36 49.81125 -116.88235 4550 ft 151 kts 173°
2026-04-22 02:36 49.80078 -116.88068 4552 ft 151 kts 173°
2026-04-22 02:36 49.79034 -116.87900 4553 ft 151 kts 173°
2026-04-22 02:37 49.77985 -116.87730 4551 ft 152 kts 173°
2026-04-22 02:37 49.76935 -116.87562 4550 ft 152 kts 173°
2026-04-22 02:37 49.75885 -116.87394 4553 ft 151 kts 174°
2026-04-22 02:37 49.74837 -116.87223 4553 ft 152 kts 173°
2026-04-22 02:38 49.73788 -116.87229 4542 ft 152 kts 192°
2026-04-22 02:38 49.72766 -116.87639 4543 ft 152 kts 194°
2026-04-22 02:38 49.71742 -116.88046 4549 ft 152 kts 194°
2026-04-22 02:38 49.70717 -116.88444 4544 ft 152 kts 194°
2026-04-22 02:39 49.69692 -116.88850 4550 ft 152 kts 194°
2026-04-22 02:39 49.68669 -116.89261 4551 ft 152 kts 194°
2026-04-22 02:39 49.67650 -116.89669 4545 ft 151 kts 194°
2026-04-22 02:39 49.66633 -116.90105 4529 ft 152 kts 204°
2026-04-22 02:40 49.65875 -116.91197 4533 ft 150 kts 234°
2026-04-22 02:40 49.65246 -116.92487 4492 ft 153 kts 233°
2026-04-22 02:40 49.64562 -116.93747 4377 ft 158 kts 224°
2026-04-22 02:40 49.63719 -116.94899 4259 ft 161 kts 221°
2026-04-22 02:41 49.62877 -116.96026 4144 ft 163 kts 221°
2026-04-22 02:41 49.62023 -116.97191 4020 ft 165 kts 227°
2026-04-22 02:41 49.61553 -116.98767 3892 ft 164 kts 258°
2026-04-22 02:41 49.61291 -117.00483 3781 ft 165 kts 258°
2026-04-22 02:42 49.61027 -117.02199 3659 ft 164 kts 257°
2026-04-22 02:42 49.60768 -117.03919 3541 ft 165 kts 258°
2026-04-22 02:42 49.60629 -117.05671 3416 ft 165 kts 266°
2026-04-22 02:42 49.60539 -117.07431 3298 ft 164 kts 267°
2026-04-22 02:43 49.60443 -117.09190 3179 ft 165 kts 267°
2026-04-22 02:43 49.60352 -117.10953 3060 ft 165 kts 267°
2026-04-22 02:43 49.60260 -117.12697 3036 ft 160 kts 266°
2026-04-22 02:43 49.60166 -117.14390 3038 ft 157 kts 267°
2026-04-22 02:44 49.59908 -117.16010 3029 ft 156 kts 247°
2026-04-22 02:44 49.59363 -117.17436 3026 ft 154 kts 237°
2026-04-22 02:44 49.58739 -117.18764 3024 ft 153 kts 233°
2026-04-22 02:44 49.58056 -117.20020 3022 ft 153 kts 229°
2026-04-22 02:45 49.57359 -117.21255 3020 ft 153 kts 230°
2026-04-22 02:45 49.56659 -117.22487 3018 ft 153 kts 230°
2026-04-22 02:45 49.55843 -117.23525 3022 ft 154 kts 212°
2026-04-22 02:45 49.54924 -117.24366 3022 ft 153 kts 211°
2026-04-22 02:46 49.54014 -117.25211 3027 ft 152 kts 211°
2026-04-22 02:46 49.53110 -117.26062 3026 ft 152 kts 211°
2026-04-22 02:46 49.52204 -117.26909 3025 ft 153 kts 212°
2026-04-22 02:46 49.51290 -117.27753 3025 ft 154 kts 211°
2026-04-22 02:47 49.50375 -117.28602 3018 ft 153 kts 211°
2026-04-22 02:47 49.49491 -117.29493 3012 ft 152 kts 225°
2026-04-22 02:47 49.48976 -117.30881 3018 ft 150 kts 252°
2026-04-22 02:47 49.49082 -117.32409 3013 ft 148 kts 302°
2026-04-22 02:48 49.49587 -117.33782 3021 ft 148 kts 296°
2026-04-22 02:48 49.49971 -117.35237 3022 ft 147 kts 279°
2026-04-22 02:48 49.49930 -117.36812 3030 ft 149 kts 261°
2026-04-22 02:48 49.49718 -117.38376 3027 ft 151 kts 253°
2026-04-22 02:49 49.49311 -117.39859 3031 ft 150 kts 245°
2026-04-22 02:49 49.48863 -117.41308 3023 ft 151 kts 245°
2026-04-22 02:49 49.48413 -117.42770 3021 ft 151 kts 245°
2026-04-22 02:49 49.47953 -117.44235 3022 ft 154 kts 245°
2026-04-22 02:50 49.47404 -117.45642 3021 ft 153 kts 231°
2026-04-22 02:50 49.46704 -117.46873 3021 ft 152 kts 229°
2026-04-22 02:50 49.46069 -117.48166 3012 ft 152 kts 245°
2026-04-22 02:50 49.45708 -117.49688 3014 ft 152 kts 254°
2026-04-22 02:51 49.45374 -117.51211 3022 ft 153 kts 252°
2026-04-22 02:51 49.44732 -117.52462 3013 ft 154 kts 205°
2026-04-22 02:51 49.43695 -117.52830 3019 ft 153 kts 192°
2026-04-22 02:51 49.42660 -117.53216 3021 ft 153 kts 194°
2026-04-22 02:52 49.41625 -117.53605 3024 ft 153 kts 193°
2026-04-22 02:52 49.40592 -117.53993 3023 ft 153 kts 193°
2026-04-22 02:52 49.39560 -117.54385 3021 ft 153 kts 193°
2026-04-22 02:52 49.38533 -117.54797 3022 ft 152 kts 193°
2026-04-22 02:53 49.37512 -117.55220 3019 ft 152 kts 198°
2026-04-22 02:53 49.36577 -117.55963 3016 ft 152 kts 212°
2026-04-22 02:53 49.35685 -117.56836 3014 ft 152 kts 214°
2026-04-22 02:53 49.34906 -117.57940 3011 ft 153 kts 226°
2026-04-22 02:54 49.34179 -117.59127 3010 ft 153 kts 230°
2026-04-22 02:54 49.33566 -117.60454 3009 ft 153 kts 235°
2026-04-22 02:54 49.32973 -117.61804 3011 ft 153 kts 236°
2026-04-22 02:54 49.32381 -117.63157 3009 ft 153 kts 235°
2026-04-22 02:55 49.31794 -117.64492 2908 ft 145 kts 236°
2026-04-22 02:55 49.31246 -117.65713 2749 ft 134 kts 226°
2026-04-22 02:55 49.30425 -117.66132 2604 ft 125 kts 169°
2026-04-22 02:55 49.29624 -117.65904 2598 ft 110 kts 169°
2026-04-22 02:56 49.28923 -117.65732 2594 ft 96 kts 169°
2026-04-22 02:56 49.28298 -117.65574 2590 ft 86 kts 169°
2026-04-22 02:56 49.27731 -117.65428 2543 ft 81 kts 168°
2026-04-22 02:56 49.27146 -117.65283 2526 ft 92 kts 167°
2026-04-22 02:57 49.26460 -117.65090 2565 ft 101 kts 166°
2026-04-22 02:57 49.25771 -117.64678 2538 ft 107 kts 133°
2026-04-22 02:57 49.25554 -117.63604 2436 ft 108 kts 81°
2026-04-22 02:57 49.25968 -117.62801 2432 ft 93 kts 19°
2026-04-22 02:58 49.26604 -117.62647 2287 ft 87 kts
2026-04-22 02:58 49.27184 -117.62654 2110 ft 82 kts 356°
2026-04-22 02:58 49.27738 -117.62714 1990 ft 82 kts 354°
2026-04-22 02:58 49.28313 -117.62870 1842 ft 84 kts 348°
2026-04-22 02:59 49.28883 -117.63039 1684 ft 83 kts 351°
2026-04-22 02:59 49.29397 -117.63183 1628 ft 63 kts 351°
2026-04-22 02:59 49.29737 -117.63290 1631 ft 44 kts 348°
2026-04-22 02:59 49.30023 -117.63380 1625 ft 33 kts 348°
2026-04-22 03:00 49.30102 -117.63457 1625 ft 10 kts 267°
2026-04-22 03:00 49.30087 -117.63544 1624 ft 10 kts 245°
2026-04-22 03:00 49.30041 -117.63563 1627 ft 9 kts 171°
2026-04-22 03:00 49.29985 -117.63565 1626 ft 4 kts 231°
2026-04-22 03:01 49.29978 -117.63600 1629 ft 0 kts 259°